Regional Weather Roundup
Issued by NWS

Home | Current Version | Previous Version | Graphics & Text | Print | Product List | Glossary On
Versions: 1 2 3 4 5 6 7 8 9 10 11 12 13 14 15 16 17 18 19 20 21 22 23 24 25 26 27 28 29 30 31 32 33 34 35 36 37 38 39 40 41 42 43 44 45 46 47 48 49 50
801
ASUS43 KDTX 281401
RWRMI
MICHIGAN HOURLY REGIONAL WEATHER ROUNDUP
NATIONAL WEATHER SERVICE DETROIT/PONTIAC MI
1000 AM EDT THU APR 28 2016

NOTE: "FAIR" INDICATES FEW OR NO CLOUDS BELOW 12,000 FEET WITH NO
SIGNIFICANT WEATHER AND/OR OBSTRUCTION TO VISIBILITY.

MIZ047>049-052>055-059>063-066>070-074>076-081>083-281500-
SOUTHEAST LOWER MICHIGAN

CITY           SKY/WX    TMP DP  RH WIND       PRES   REMARKS
ADRIAN         LGT RAIN  40  37  89 E15       29.96S FOG     WCI  32
ALMA           CLOUDY    42  25  51 E15       30.01F
ANN ARBOR      CLOUDY    41  34  76 NE9       29.98R
BAD AXE        FAIR      42  26  52 E10       30.06S
CARO           CLOUDY    43  23  44 E13       30.03S
DETROIT CITY   LGT RAIN  40  32  73 E12       30.00S WCI  33
DETROIT        CLOUDY    42  35  76 NE8G20    29.99R
FLINT          LGT RAIN  43  29  57 E13       30.00F
GROSSE ILE     LGT RAIN  43  36  75 NE10      29.96S
HILLSDALE      CLOUDY    39  37  93 E16       29.94R WCI  30
HOWELL         LGT RAIN  39  34  81 NE3       29.99R

CITY           SKY/WX    TMP DP  RH WIND       PRES   REMARKS
JACKSON        LGT RAIN  38  32  79 E10       29.97R WCI  31
LAMBERTVILLE   CLOUDY    45  40  83 E6        29.97R
LANSING        LGT RAIN  38  33  82 E7        30.00S WCI  33
LAPEER         CLOUDY    40  26  56 E9        30.01F WCI  35
MASON          LGT RAIN  38  34  84 E6        29.99S WCI  34
MONROE         LGT RAIN  42  37  81 NE12      29.96R
MT. CLEMENS    LGT RAIN  41  31  68 NE12      30.00S
PONTIAC        LGT RAIN  39  30  70 E12       29.98S WCI  32
PORT HOPE        N/A     40  32  73 E13       30.06R WCI  32
PORT HURON     CLOUDY    43  25  49 E9G16     30.03S
TRI CITIES     CLOUDY    44  24  45 E13       30.03S
MIDLAND        CLOUDY    44  27  51 E12       30.03S
TROY           LGT RAIN  41  30  65 NE10      30.01S
SAGINAW HB     CLOUDY    43  25  49 E12       30.02S
$$
MIZ043>046-050>051-056>058-064>065-071>073-077>080-281500-
SOUTHWEST LOWER MICHIGAN

CITY           SKY/WX    TMP DP  RH WIND       PRES   REMARKS
BATTLE CREEK   CLOUDY    39  32  76 E14       29.94R WCI  31
BENTON HARBOR  CLOUDY    43  37  79 E15G22    29.85S
BIG RAPIDS     CLOUDY    43  19  37 E14G24    29.99S
COLDWATER      CLOUDY    41  37  85 E15G21    29.91F
FREMONT        RAIN      37  32  81 E13G18    29.97S WCI  29
HOLLAND        LGT RAIN  37  33  85 E13G23    29.93F WCI  29
GRAND RAPIDS   LGT RAIN  38  32  79 E12       29.98R WCI  30
IONIA          LGT RAIN  36  31  83 NE9       29.97F WCI  29
KALAMAZOO      CLOUDY    41  31  67 E12G20    29.92F
LUDINGTON      CLOUDY    45  22  40 E10       29.98R
MARSHALL       CLOUDY    39  35  87 E8        29.95R WCI  33
MOUNT PLEASANT PTSUNNY   44  31  60 E9        30.01R
MUSKEGON       RAIN      38  31  76 E18G26    29.94F WCI  28
SOUTH HAVEN    LGT RAIN  40  37  86 E13G21    29.86F WCI  33
$$
MIZ016>042-281500-
NORTHERN LOWER MICHIGAN

CITY           SKY/WX    TMP DP  RH WIND       PRES   REMARKS
ALPENA         FAIR      41  28  60 E14G22    30.11R
BEAVER ISLAND  FAIR      42  29  59 E14G22    30.09R
BELLAIRE       FAIR      44  24  44 E5        30.05S
CADILLAC       CLOUDY    42  20  42 E14G21    29.98F
CHARLEVOIX     FAIR      43  26  50 E15G23    30.09F
FRANKFORT      PTSUNNY   44  23  43 E9        30.00F
GAYLORD        FAIR      40  25  55 E9        30.05S WCI  34
GRAYLING       FAIR      42  28  57 E13       30.05S
HARBOR SPRINGS FAIR      44  27  51 E15G21    30.08S
HOUGHTON LAKE  FAIR      43  22  43 E15       30.03S
MANISTEE       PTSUNNY   46  16  29 E15       29.99S
OSCODA         FAIR      41  32  69 NE15      30.09R
PELLSTON       FAIR      43  25  49 E20       30.10S
ROGERS CITY    FAIR      39  28  64 E13G18    30.13S WCI  32
TRAVERSE CITY  CLOUDY    44  26  49 NE7       30.02F
$$
MIZ007>008-015-281500-
EASTERN UPPER MICHIGAN

CITY           SKY/WX    TMP DP  RH WIND       PRES   REMARKS
KINROSS          N/A     39  25  56 E16       30.12S WCI  30
MACKINAC ISLAN FAIR      39  28  63 E12G22    30.11S WCI  32
NEWBERRY       FAIR      40  25  55 E12       30.10F WCI  33
S. S. MARIE    FAIR      40  24  53 SE9       30.13S WCI  34
MUNISING         N/A     44  23  43 SE9       30.10S
$$
MIZ004>006-011>014-085-281500-
CENTRAL UPPER MICHIGAN

CITY           SKY/WX    TMP DP  RH WIND       PRES   REMARKS
MANISTIQUE     FAIR      43  24  47 E12G22    30.09S
ESCANABA       FAIR      43  27  52 E10       30.07S
MENOMINEE      FAIR      39  32  75 E18       30.04S WCI  30
SAWYER-GWINN   SUNNY     39  25  56 E10       30.10S WCI  32
$$
MIZ001>003-009>011-084-281500-
WESTERN UPPER MICHIGAN

CITY           SKY/WX    TMP DP  RH WIND       PRES   REMARKS
IRON MOUNTAIN  FAIR      41  22  46 VRB7      30.04S
HOUGHTON       FAIR      38  28  67 E12       30.11S WCI  30
COPPER HARBOR    N/A     39  30  70 SE6       30.15R WCI  35
IRONWOOD       PTSUNNY   39  19  45 E12       30.02S WCI  32
$$

ABBREVIATIONS USED IN REMARKS
   TC - TEMPERATURE IN CELSIUS
  WCI - WIND CHILL INDEX
   HX - HEAT INDEX
  VSB - VISIBILITY





USA.gov is the U.S. government's official web portal to all federal, state and local government web resources and services.